Location: Sabalos
(43.2860°N, 0.1414°E)
Time: 00:24:46
(UTC+00:00)

Cosmos 1455 - Pass Details

Date: 05 July 2020
Orbit: 500 x 521 km, 82.5° (Epoch: 03 August)

Event Time Altitude Azimuth Distance (km) Brightness Sun altitude
Rises 21:42:55 0° 336° (NNW) 2,643 7.5 -16.5°
Reaches altitude 10° 21:45:26 10° 320° (NW) 1,754 6.2 -16.7°
Maximum altitude 21:48:18 20° 272° (W) 1,232 4.5 -17.0°
Drops below altitude 10° 21:51:10 10° 223° (SW) 1,749 4.7 -17.3°
Enters shadow 21:51:45 - 218° (SW) 1,938 4.9 -17.4°
